{"data":{"norad_id":68963,"intl_designator":"2026-099N","name":"STARLINK-36764","alt_names":[],"object_type":"PAYLOAD","status":"ACTIVE","operator":null,"country":"US","launch_date":"2026-05-01","launch_site_code":"AFETR","launch_vehicle":null,"mission":null,"orbit_class":"UNKNOWN","rcs_meters":null,"size_class":null,"mass_kg":null,"dimensions":null,"purposes":["comms"],"wikipedia_slug":null,"has_3d_model":false,"image_url":null,"decayed_at":null,"tle_current":{"epoch":"2026-09-19T21:47:21.060096Z","epoch_age_seconds":70595,"freshness":"FRESH","line1":"1 68963U 26099N   26262.90788264  .00019734  00000+0  59369-3 0  9998","line2":"2 68963  53.1578  78.5438 0001165  85.4615 274.6521 15.34397744 21816","mean_motion":15.34397744,"eccentricity":0.0001165,"inclination_deg":53.1578,"raan_deg":78.5438,"arg_perigee_deg":85.4615,"mean_anomaly_deg":274.6521,"bstar":0.00059369,"rev_number":2181,"period_min":93.847896064164,"perigee_km":461.9129868536,"apogee_km":463.50690419191,"semimajor_km":6840.8469455228,"source":"CELESTRAK","updated_at":"2026-09-20T09:00:44.053858Z"}}}